• In United Kingdom
  • List of Countries
  • For 7 days
  • Water Temperature
  • Satellite Maps
  • Weather Map
  • Weather Widgets
  • user-avatar
    Login

    Hourly Weather Melbourne

    Today, 19 January, Friday

    Time Temperature Precipitation Wind Pressure Humidity
    00:00 +29°C° 0 mm 3 mps 757 mmHg 21%
    01:00 +28°C° 0 mm 3 mps 757 mmHg 22%
    02:00 +27°C° 0 mm 3 mps 757 mmHg 23%
    03:00 +27°C° 0 mm 3 mps 757 mmHg 23%
    04:00 +27°C° 0 mm 4 mps 757 mmHg 22%
    05:00 +28°C° 0 mm 4 mps 757 mmHg 22%
    06:00 +28°C° 0 mm 4 mps 757 mmHg 22%
    07:00 +29°C° 0 mm 4 mps 758 mmHg 22%
    08:00 +33°C° 0 mm 5 mps 758 mmHg 20%
    09:00 +36°C° 0 mm 5 mps 758 mmHg 17%
    10:00 +39°C° 0 mm 6 mps 758 mmHg 13%
    11:00 +41°C° 0 mm 5 mps 757 mmHg 12%
    12:00 +43°C° 0 mm 4 mps 757 mmHg 11%
    13:00 +44°C° 0 mm 3 mps 756 mmHg 9%
    14:00 +44°C° 0 mm 3 mps 756 mmHg 12%
    15:00 +43°C° 0 mm 3 mps 756 mmHg 14%
    16:00 +43°C° 0 mm 3 mps 755 mmHg 16%
    17:00 +39°C° 0 mm 3 mps 755 mmHg 22%
    18:00 +36°C° 0 mm 3 mps 756 mmHg 29%
    19:00 +33°C° 0 mm 3 mps 756 mmHg 36%
    20:00 +29°C° 0 mm 3 mps 756 mmHg 44%
    21:00 +27°C° 0 mm 3 mps 757 mmHg 52%
    22:00 +25°C° 0 mm 3 mps 757 mmHg 60%
    23:00 +24°C° 0 mm 3 mps 757 mmHg 65%

    Tomorrow, 20 January, Saturday

    Time Temperature Precipitation Wind Pressure Humidity
    00:00 +23°C° 0 mm 2 mps 757 mmHg 70%
    01:00 +21°C° 0 mm 2 mps 757 mmHg 75%
    02:00 +21°C° 0 mm 2 mps 757 mmHg 79%
    03:00 +21°C° 0 mm 1 mps 758 mmHg 82%
    04:00 +21°C° 0 mm 1 mps 758 mmHg 85%
    05:00 +22°C° 0 mm 1 mps 758 mmHg 81%
    06:00 +23°C° 0 mm 1 mps 758 mmHg 77%
    07:00 +21°C° 0 mm 0 mps 758 mmHg 72%
    08:00 +26°C° 0 mm 1 mps 758 mmHg 61%
    09:00 +29°C° 0 mm 2 mps 758 mmHg 50%
    10:00 +33°C° 0 mm 3 mps 758 mmHg 39%
    11:00 +33°C° 0 mm 3 mps 758 mmHg 38%
    12:00 +34°C° 0 mm 3 mps 757 mmHg 37%
    13:00 +35°C° 0 mm 3 mps 757 mmHg 36%
    14:00 +34°C° 0.1 mm 4 mps 757 mmHg 40%
    15:00 +33°C° 0.1 mm 4 mps 756 mmHg 44%
    16:00 +32°C° 0.1 mm 4 mps 756 mmHg 47%
    17:00 +30°C° 0 mm 4 mps 756 mmHg 50%
    18:00 +29°C° 0 mm 3 mps 756 mmHg 53%
    19:00 +28°C° 0 mm 3 mps 756 mmHg 56%
    20:00 +27°C° 0 mm 3 mps 756 mmHg 62%
    21:00 +26°C° 0 mm 3 mps 757 mmHg 68%
    22:00 +24°C° 0 mm 3 mps 757 mmHg 73%
    23:00 +24°C° 0 mm 3 mps 756 mmHg 75%

    Day after tomorrow, 21 January, Sunday

    Time Temperature Precipitation Wind Pressure Humidity
    00:00 +23°C° 0 mm 2 mps 756 mmHg 77%
    01:00 +23°C° 0 mm 1 mps 755 mmHg 79%
    02:00 +23°C° 0 mm 1 mps 755 mmHg 75%
    03:00 +24°C° 0 mm 1 mps 755 mmHg 71%
    04:00 +24°C° 0 mm 1 mps 754 mmHg 67%
    05:00 +25°C° 0 mm 1 mps 755 mmHg 66%
    06:00 +25°C° 0 mm 1 mps 755 mmHg 66%
    07:00 +25°C° 0 mm 1 mps 755 mmHg 65%
    08:00 +27°C° 0 mm 1 mps 755 mmHg 57%
    09:00 +29°C° 0 mm 1 mps 755 mmHg 49%
    10:00 +31°C° 0 mm 1 mps 754 mmHg 41%
    11:00 +34°C° 0.1 mm 2 mps 754 mmHg 37%
    12:00 +36°C° 0.1 mm 2 mps 754 mmHg 34%
    13:00 +37°C° 0.1 mm 2 mps 753 mmHg 31%
    14:00 +35°C° 0.1 mm 3 mps 753 mmHg 39%
    15:00 +31°C° 0.1 mm 3 mps 752 mmHg 48%
    16:00 +29°C° 0.1 mm 4 mps 752 mmHg 57%
    17:00 +28°C° 0.1 mm 3 mps 752 mmHg 62%
    18:00 +27°C° 0.1 mm 2 mps 752 mmHg 67%
    19:00 +25°C° 0.1 mm 2 mps 752 mmHg 72%
    20:00 +25°C° 0.3 mm 2 mps 753 mmHg 77%
    21:00 +24°C° 0.3 mm 2 mps 753 mmHg 82%
    22:00 +23°C° 0.3 mm 2 mps 753 mmHg 87%
    23:00 +21°C° 0.1 mm 2 mps 753 mmHg 90%

    22 January, Monday

    Time Temperature Precipitation Wind Pressure Humidity
    00:00 +21°C° 0.1 mm 2 mps 753 mmHg 92%
    01:00 +21°C° 0.1 mm 1 mps 753 mmHg 95%
    02:00 +20°C° 0 mm 2 mps 753 mmHg 95%
    03:00 +20°C° 0 mm 2 mps 753 mmHg 95%
    04:00 +20°C° 0 mm 2 mps 752 mmHg 95%
    05:00 +20°C° 0 mm 2 mps 753 mmHg 93%
    06:00 +20°C° 0 mm 2 mps 754 mmHg 91%
    07:00 +20°C° 0 mm 2 mps 754 mmHg 89%
    08:00 +23°C° 0 mm 2 mps 754 mmHg 81%
    09:00 +24°C° 0 mm 2 mps 755 mmHg 74%
    10:00 +25°C° 0 mm 2 mps 755 mmHg 67%
    11:00 +26°C° 0 mm 3 mps 754 mmHg 60%
    12:00 +28°C° 0 mm 3 mps 754 mmHg 53%
    13:00 +30°C° 0 mm 3 mps 754 mmHg 45%
    14:00 +29°C° 0 mm 4 mps 753 mmHg 47%
    15:00 +29°C° 0 mm 4 mps 753 mmHg 48%
    16:00 +28°C° 0 mm 5 mps 753 mmHg 50%
    17:00 +26°C° 0 mm 5 mps 753 mmHg 55%
    18:00 +23°C° 0 mm 4 mps 754 mmHg 61%
    19:00 +21°C° 0 mm 4 mps 754 mmHg 66%
    20:00 +20°C° 0 mm 4 mps 755 mmHg 72%
    21:00 +19°C° 0 mm 3 mps 755 mmHg 78%
    22:00 +18°C° 0 mm 3 mps 756 mmHg 84%
    23:00 +17°C° 0 mm 3 mps 756 mmHg 86%

    23 January, Tuesday

    Time Temperature Precipitation Wind Pressure Humidity
    00:00 +17°C° 0 mm 3 mps 756 mmHg 87%
    01:00 +16°C° 0 mm 3 mps 756 mmHg 89%
    02:00 +16°C° 0 mm 2 mps 756 mmHg 89%
    03:00 +16°C° 0 mm 2 mps 755 mmHg 89%
    04:00 +16°C° 0 mm 2 mps 755 mmHg 89%
    05:00 +16°C° 0 mm 2 mps 756 mmHg 87%
    06:00 +17°C° 0 mm 2 mps 756 mmHg 84%
    07:00 +17°C° 0 mm 2 mps 756 mmHg 81%
    08:00 +19°C° 0 mm 2 mps 756 mmHg 72%
    09:00 +21°C° 0 mm 2 mps 756 mmHg 62%
    10:00 +24°C° 0 mm 3 mps 756 mmHg 53%
    11:00 +25°C° 0 mm 3 mps 756 mmHg 49%
    12:00 +26°C° 0 mm 4 mps 756 mmHg 44%
    13:00 +28°C° 0 mm 4 mps 755 mmHg 40%
    14:00 +27°C° 0 mm 4 mps 755 mmHg 42%
    15:00 +27°C° 0 mm 4 mps 755 mmHg 44%
    16:00 +27°C° 0 mm 5 mps 755 mmHg 46%
    17:00 +25°C° 0 mm 4 mps 755 mmHg 52%
    18:00 +22°C° 0 mm 4 mps 756 mmHg 57%
    19:00 +21°C° 0 mm 4 mps 756 mmHg 63%
    20:00 +20°C° 0 mm 3 mps 756 mmHg 69%
    21:00 +19°C° 0 mm 3 mps 757 mmHg 74%
    22:00 +17°C° 0 mm 2 mps 757 mmHg 80%
    23:00 +17°C° 0 mm 2 mps 757 mmHg 83%

    24 January, Wednesday

    Time Temperature Precipitation Wind Pressure Humidity
    00:00 +16°C° 0 mm 2 mps 756 mmHg 86%
    01:00 +16°C° 0 mm 1 mps 756 mmHg 89%
    02:00 +15°C° 0 mm 2 mps 756 mmHg 91%
    03:00 +15°C° 0 mm 2 mps 756 mmHg 92%
    04:00 +15°C° 0 mm 2 mps 756 mmHg 94%
    05:00 +16°C° 0 mm 2 mps 756 mmHg 90%
    06:00 +16°C° 0 mm 2 mps 756 mmHg 87%
    07:00 +17°C° 0 mm 2 mps 757 mmHg 84%
    08:00 +19°C° 0 mm 2 mps 756 mmHg 75%
    09:00 +21°C° 0 mm 2 mps 756 mmHg 66%
    10:00 +25°C° 0 mm 3 mps 756 mmHg 56%
    11:00 +26°C° 0 mm 3 mps 756 mmHg 52%
    12:00 +28°C° 0 mm 3 mps 755 mmHg 47%
    13:00 +29°C° 0 mm 4 mps 755 mmHg 42%
    14:00 +29°C° 0 mm 4 mps 755 mmHg 44%
    15:00 +28°C° 0 mm 5 mps 755 mmHg 45%
    16:00 +28°C° 0 mm 5 mps 754 mmHg 47%
    17:00 +26°C° 0 mm 5 mps 755 mmHg 52%
    18:00 +23°C° 0 mm 5 mps 755 mmHg 57%
    19:00 +21°C° 0 mm 4 mps 755 mmHg 63%
    20:00 +20°C° 0 mm 4 mps 756 mmHg 68%
    21:00 +19°C° 0 mm 4 mps 756 mmHg 74%
    22:00 +18°C° 0 mm 3 mps 756 mmHg 80%
    23:00 +18°C° 0 mm 3 mps 756 mmHg 82%
    Show more